CW0104 Weather Reports


Display with metric or nautical units.
time (UTC)temp
F
wind
direction
speed
MPH
gust
MPH
rain 1hr
in
rain 24hr
in
rain mn
in
humidity
%
barometer
mb
20180620230923 75 350 0.0 0.0 0.00 0.01 0.01 56 1007.9
20180620225900 75 350 0.0 0.0 0.00 0.01 0.01 58 1008.0
20180620225423 75 350 0.0 0.0 0.00 0.01 0.01 57 1008.1
20180620224856 75 350 0.0 0.0 0.00 0.01 0.01 53 1008.1
20180620224351 75 350 0.0 0.0 0.00 0.01 0.01 53 1008.3
20180620223426 75 350 0.0 1.0 0.00 0.01 0.01 51 1008.1
20180620221910 75 350 0.0 1.0 0.00 0.01 0.01 51 1008.4
20180620221416 75 350 0.0 0.0 0.00 0.01 0.01 52 1008.4
20180620220428 75 350 0.0 3.0 0.00 0.01 0.01 50 1008.4
20180620215902 75 350 0.0 3.0 0.00 0.01 0.01 50 1008.5
20180620215352 75 5 0.0 1.0 0.00 0.01 0.01 51 1008.5
20180620214420 75 5 0.0 1.0 0.00 0.01 0.01 49 1008.5
20180620213846 75 5 0.0 1.0 0.00 0.01 0.01 49 1008.4
20180620213415 75 5 0.0 0.0 0.00 0.01 0.01 49 1008.5
20180620212346 76 5 0.0 1.0 0.00 0.01 0.01 49 1008.7
20180620211848 76 5 0.0 1.0 0.00 0.01 0.01 48 1008.9
20180620211350 76 5 0.0 1.0 0.00 0.01 0.01 49 1009.0
20180620210403 76 5 0.0 3.0 0.00 0.01 0.01 48 1009.0
20180620204900 76 334 0.0 3.0 0.00 0.01 0.01 48 1008.9
20180620203847 76 337 0.0 3.0 0.00 0.01 0.01 48 1009.0
20180620203420 76 337 0.0 3.0 0.00 0.01 0.01 48 1009.0
20180620201927 76 3 0.0 3.0 0.00 0.01 0.01 46 1009.1
20180620201348 76 219 0.0 1.0 0.00 0.01 0.01 47 1009.2
20180620200405 76 267 0.0 1.0 0.00 0.01 0.01 48 1009.4
20180620194348 76 334 0.0 3.0 0.00 0.01 0.01 44 1009.5
20180620193922 76 283 0.0 2.0 0.00 0.01 0.01 45 1009.5
20180620192925 77 250 0.0 4.0 0.01 0.01 0.01 46 1009.6
20180620192428 77 221 0.0 4.0 0.01 0.01 0.01 45 1009.5
20180620190852 77 221 0.0 1.0 0.01 0.01 0.01 46 1009.5
20180620185911 78 221 0.0 3.0 0.01 0.01 0.01 43 1009.4
20180620184349 78 221 0.0 4.0 0.01 0.01 0.01 41 1009.5
20180620183858 79 221 1.0 4.0 0.01 0.01 0.01 40 1009.5
20180620183354 79 194 0.0 3.0 0.00 0.00 0.00 40 1009.5
20180620182857 79 210 1.0 4.0 0.00 0.00 0.00 38 1009.5
20180620181415 80 224 2.0 6.0 0.00 0.00 0.00 38 1009.6
20180620180910 80 197 1.0 5.0 0.00 0.00 0.00 37 1009.6
20180620180354 81 221 0.0 5.0 0.00 0.00 0.00 40 1009.8
20180620175908 81 11 0.0 3.0 0.00 0.00 0.00 39 1009.8
20180620175350 81 356 0.0 5.0 0.00 0.00 0.00 38 1009.8
20180620174929 82 219 2.0 5.0 0.00 0.00 0.00 38 1009.8
20180620174419 82 234 0.0 4.0 0.00 0.00 0.00 38 1009.8
20180620173414 82 201 0.0 4.0 0.00 0.00 0.00 37 1009.6
20180620172909 82 223 1.0 4.0 0.00 0.00 0.00 37 1009.8
20180620172401 82 257 0.0 2.0 0.00 0.00 0.00 37 1009.9
20180620165900 82 337 0.0 4.0 0.00 0.00 0.00 37 1010.4
20180620165352 82 231 1.0 5.0 0.00 0.00 0.00 35 1010.4
20180620164906 81 141 0.0 5.0 0.00 0.00 0.00 36 1010.5
20180620163419 81 213 0.0 3.0 0.00 0.00 0.00 39 1010.5
20180620162858 81 207 0.0 5.0 0.00 0.00 0.00 37 1010.5
20180620161423 79 241 0.0 2.0 0.00 0.00 0.00 39 1010.7
20180620160423 78 174 0.0 1.0 0.00 0.00 0.00 43 1011.0
20180620155907 78 174 0.0 4.0 0.00 0.00 0.00 43 1011.1
20180620155359 77 174 0.0 4.0 0.00 0.00 0.00 44 1011.1
20180620153417 76 215 0.0 3.0 0.00 0.00 0.00 44 1011.5
20180620152856 75 217 0.0 6.0 0.00 0.00 0.00 47 1011.6
20180620145420 71 224 0.0 4.0 0.00 0.00 0.00 51 1011.9
20180620144921 71 209 1.0 4.0 0.00 0.00 0.00 55 1012.0
20180620143403 70 236 0.0 3.0 0.00 0.00 0.00 54 1012.0
20180620142411 69 152 0.0 1.0 0.00 0.00 0.00 56 1012.1
20180620141427 69 196 0.0 1.0 0.00 0.00 0.00 56 1012.2
20180620140909 68 198 0.0 1.0 0.00 0.00 0.00 56 1012.2
20180620140348 68 198 0.0 1.0 0.00 0.00 0.00 57 1012.2
20180620134923 66 188 0.0 1.0 0.00 0.00 0.00 59 1012.5
20180620133409 65 158 1.0 5.0 0.00 0.00 0.00 59 1012.6
20180620132405 64 61 0.0 3.0 0.00 0.00 0.00 62 1012.7
20180620131908 64 61 0.0 3.0 0.00 0.00 0.00 64 1012.9
20180620130410 63 61 0.0 2.0 0.00 0.00 0.00 67 1013.1
20180620125913 62 61 0.0 4.0 0.00 0.00 0.00 70 1013.2
20180620124430 61 35 0.0 1.0 0.00 0.00 0.00 75 1013.2
20180620123908 61 35 0.0 1.0 0.00 0.00 0.00 76 1013.2
20180620123429 61 35 0.0 1.0 0.00 0.00 0.00 79 1013.2
20180620121928 60 348 0.0 0.0 0.00 0.00 0.00 81 1013.3
20180620121426 59 348 0.0 0.0 0.00 0.00 0.00 82 1013.4
20180620120911 59 348 0.0 0.0 0.00 0.00 0.00 82 1013.6
20180620115347 58 348 0.0 0.0 0.00 0.00 0.00 83 1013.7
20180620114857 58 348 0.0 0.0 0.00 0.00 0.00 84 1013.7
20180620114407 57 348 0.0 1.0 0.00 0.00 0.00 84 1013.7
20180620113408 56 348 0.0 1.0 0.00 0.00 0.00 85 1013.6
20180620112924 56 348 0.0 1.0 0.00 0.00 0.00 86 1013.5
20180620112415 56 348 0.0 1.0 0.00 0.00 0.00 86 1013.3
20180620111929 56 348 0.0 1.0 0.00 0.00 0.00 86 1013.2
20180620111403 56 348 0.0 1.0 0.00 0.00 0.00 87 1013.3
20180620110407 55 348 0.0 0.0 0.00 0.00 0.00 86 1013.2
20180620104913 55 348 0.0 0.0 0.00 0.00 0.00 85 1013.0
20180620104425 54 348 0.0 0.0 0.00 0.00 0.00 84 1013.1
20180620103856 54 348 0.0 0.0 0.00 0.00 0.00 84 1013.0
20180620101922 54 348 0.0 0.0 0.00 0.00 0.00 83 1012.7
20180620095904 54 348 0.0 0.0 0.00 0.00 0.00 82 1012.6
20180620094905 54 348 0.0 0.0 0.00 0.00 0.00 81 1012.7
20180620094426 54 348 0.0 0.0 0.00 0.00 0.00 81 1012.6
20180620093846 54 348 0.0 0.0 0.00 0.00 0.00 81 1012.7
20180620085858 54 348 0.0 0.0 0.00 0.00 0.00 79 1012.2
20180620085411 55 348 0.0 0.0 0.00 0.00 0.00 79 1012.1
20180620084919 55 348 0.0 0.0 0.00 0.00 0.00 79 1012.1
20180620084358 55 348 0.0 0.0 0.00 0.00 0.00 79 1012.1
20180620083856 55 348 0.0 0.0 0.00 0.00 0.00 79 1012.1
20180620083401 55 348 0.0 0.0 0.00 0.00 0.00 78 1012.1
20180620081851 55 348 0.0 0.0 0.00 0.00 0.00 77 1012.1
20180620081416 56 348 0.0 0.0 0.00 0.00 0.00 77 1012.1
20180620080928 56 348 0.0 0.0 0.00 0.00 0.00 76 1012.1
20180620080427 56 348 0.0 0.0 0.00 0.01 0.00 76 1012.0
20180620075345 56 348 0.0 0.0 0.00 0.01 0.00 75 1012.1
20180620074350 56 348 0.0 0.0 0.00 0.01 0.00 74 1012.1
20180620073903 57 348 0.0 0.0 0.00 0.01 0.00 73 1012.1
20180620073346 57 348 0.0 0.0 0.00 0.01 0.00 73 1012.1
20180620071913 57 348 0.0 0.0 0.00 0.01 0.00 72 1012.1
20180620071347 57 348 0.0 0.0 0.00 0.01 0.00 72 1012.2
20180620070929 58 348 0.0 0.0 0.00 0.01 0.00 72 1012.2
20180620065921 58 348 0.0 0.0 0.00 0.02 0.00 71 1012.3
20180620064907 58 348 0.0 0.0 0.00 0.02 0.00 71 1012.2
20180620064426 59 348 0.0 0.0 0.00 0.02 0.00 71 1012.1
20180620063907 59 348 0.0 0.0 0.00 0.02 0.00 70 1012.1
20180620063352 59 348 0.0 0.0 0.00 0.02 0.00 70 1012.2
20180620062917 59 348 0.0 0.0 0.00 0.02 0.00 70 1012.1
20180620061357 60 348 0.0 0.0 0.00 0.02 0.00 69 1012.0
20180620060426 60 348 0.0 0.0 0.00 0.02 0.00 68 1011.8
20180620054904 61 348 0.0 0.0 0.00 0.02 0.00 67 1011.9
20180620054352 61 348 0.0 0.0 0.00 0.02 0.00 67 1011.7
20180620053347 61 348 0.0 1.0 0.00 0.02 0.00 66 1012.0
20180620052347 62 348 0.0 0.0 0.00 0.02 0.00 66 1012.1
20180620051854 62 348 0.0 0.0 0.00 0.02 0.00 66 1012.1
20180620045426 62 348 0.0 0.0 0.00 0.02 0.00 64 1012.2
20180620044857 63 348 0.0 0.0 0.00 0.02 0.00 63 1012.2
20180620044422 63 348 0.0 0.0 0.00 0.02 0.00 63 1012.2
20180620043418 63 348 0.0 1.0 0.00 0.02 0.00 62 1012.2
20180620042415 64 348 0.0 0.0 0.00 0.02 0.00 62 1012.2
20180620041904 64 348 0.0 0.0 0.00 0.02 0.00 61 1012.3
20180620040357 64 348 0.0 0.0 0.00 0.02 0.00 60 1012.2
20180620033924 65 348 0.0 0.0 0.00 0.02 0.02 58 1012.1
20180620033414 65 348 0.0 0.0 0.00 0.02 0.02 58 1012.1
20180620032907 65 348 0.0 0.0 0.00 0.02 0.02 58 1012.1
20180620031356 65 348 0.0 1.0 0.00 0.02 0.02 58 1012.1
20180620024850 66 348 0.0 0.0 0.00 0.02 0.02 56 1011.8
20180620023420 67 348 0.0 0.0 0.00 0.02 0.02 55 1011.6
20180620022852 67 348 0.0 0.0 0.00 0.02 0.02 55 1011.6
20180620022401 67 348 0.0 0.0 0.00 0.02 0.02 55 1011.6
20180620021413 68 348 0.0 0.0 0.00 0.02 0.02 55 1011.5
20180620020353 68 348 0.0 0.0 0.00 0.02 0.02 53 1011.4
20180620015917 68 348 0.0 0.0 0.00 0.02 0.02 53 1011.1
20180620015358 69 348 0.0 0.0 0.00 0.02 0.02 53 1011.2
20180620014846 69 348 0.0 0.0 0.00 0.02 0.02 52 1011.2
20180620014349 69 348 0.0 0.0 0.00 0.02 0.02 51 1011.1
20180620013921 70 348 0.0 0.0 0.00 0.02 0.02 50 1011.0
20180620013349 70 348 0.0 0.0 0.00 0.02 0.02 49 1011.0
20180620010926 71 348 0.0 0.0 0.00 0.08 0.02 47 1010.8
20180620010420 72 348 0.0 1.0 0.00 0.10 0.02 45 1010.5
20180620005915 72 348 0.0 1.0 0.00 0.10 0.02 46 1010.4
20180620005354 72 348 0.0 0.0 0.00 0.10 0.02 45 1010.5
20180620004902 72 348 0.0 0.0 0.00 0.10 0.02 45 1010.5
20180620004421 73 348 0.0 2.0 0.00 0.10 0.02 44 1010.2
20180620003905 73 348 0.0 2.0 0.00 0.10 0.02 43 1010.1
20180620003400 73 348 0.0 1.0 0.00 0.10 0.02 43 1010.3
20180620001428 74 348 0.0 1.0 0.00 0.10 0.02 44 1010.1
20180620000909 74 348 0.0 1.0 0.00 0.10 0.02 43 1010.0
20180620000408 74 348 0.0 1.0 0.00 0.10 0.02 43 1010.0
20180619235859 75 348 0.0 1.0 0.00 0.11 0.02 43 1009.9
20180619235428 75 348 0.0 1.0 0.00 0.11 0.02 43 1009.8
20180619234853 75 348 0.0 0.0 0.00 0.12 0.02 44 1009.8
20180619234428 75 348 0.0 1.0 0.00 0.13 0.02 43 1009.8
20180619231910 76 5 0.0 1.0 0.00 0.15 0.02 39 1009.5
20180619231430 76 5 0.0 2.0 0.00 0.15 0.02 40 1009.5